IGO719 VOBL-VEBN

Flight info

Callsign IGO719
Flight time 0h 53m
Altitude 37000
Route LATID8A LATID Q22 BOSGA DCT SUDUM DCT SADEV DCT RRP DCT VEDKU DCT IBUDA DCT REBEX DCT FI27
Aircraft A20N/M-SDE2E3FGHIRWXY/LB1

Departure

Time 2026-05-07 14:30
Airport Kempegowda International Airport Bengaluru (VOBL)

Arrival

Time 2026-05-07 15:24
Airport Lal Bahadur Shastri International Airport (VEBN)
Time Latitude Longitude Altitude Speed Heading
2026-05-07 14:07 13.20171 77.70797 3011 ft 0 kts 180°
2026-05-07 14:16 13.20181 77.70794 3011 ft 1 kts 147°
2026-05-07 14:16 13.20188 77.70791 3014 ft 1 kts 177°
2026-05-07 14:17 13.20196 77.70791 3015 ft 1 kts 178°
2026-05-07 14:17 13.20204 77.70790 3014 ft 1 kts 178°
2026-05-07 14:17 13.20212 77.70790 3012 ft 2 kts 178°
2026-05-07 14:17 13.20221 77.70790 3012 ft 1 kts 178°
2026-05-07 14:18 13.20230 77.70789 3018 ft 1 kts 149°
2026-05-07 14:18 13.20239 77.70786 3016 ft 1 kts 191°
2026-05-07 14:18 13.20248 77.70790 3014 ft 1 kts 266°
2026-05-07 14:18 13.20246 77.70799 3011 ft 1 kts 284°
2026-05-07 14:19 13.20245 77.70808 3011 ft 1 kts 279°
2026-05-07 14:19 13.20243 77.70818 3014 ft 1 kts 271°
2026-05-07 14:21 13.20244 77.70805 3011 ft 3 kts 271°
2026-05-07 14:21 13.20244 77.70774 3011 ft 6 kts 271°
2026-05-07 14:21 13.20244 77.70725 3011 ft 8 kts 271°
2026-05-07 14:21 13.20245 77.70656 3011 ft 11 kts 270°
2026-05-07 14:22 13.20245 77.70571 3011 ft 13 kts 270°
2026-05-07 14:22 13.20245 77.70475 3011 ft 13 kts 269°
2026-05-07 14:22 13.20261 77.70403 3013 ft 10 kts 319°
2026-05-07 14:22 13.20290 77.70392 3011 ft 2 kts 352°
2026-05-07 14:23 13.20311 77.70391 3011 ft 4 kts
2026-05-07 14:23 13.20350 77.70392 3011 ft 7 kts
2026-05-07 14:23 13.20404 77.70392 3011 ft 9 kts
2026-05-07 14:23 13.20473 77.70394 3016 ft 11 kts
2026-05-07 14:24 13.20525 77.70376 3011 ft 8 kts 303°
2026-05-07 14:24 13.20534 77.70314 3011 ft 10 kts 271°
2026-05-07 14:24 13.20535 77.70235 3011 ft 12 kts 268°
2026-05-07 14:24 13.20534 77.70143 3011 ft 14 kts 270°
2026-05-07 14:25 13.20536 77.70032 3011 ft 16 kts 271°
2026-05-07 14:25 13.20537 77.69908 3011 ft 18 kts 271°
2026-05-07 14:25 13.20538 77.69772 3011 ft 20 kts 270°
2026-05-07 14:25 13.20540 77.69624 3011 ft 22 kts 271°
2026-05-07 14:26 13.20540 77.69467 3010 ft 23 kts 268°
2026-05-07 14:26 13.20543 77.69298 3010 ft 24 kts 271°
2026-05-07 14:26 13.20544 77.69122 3010 ft 25 kts 273°
2026-05-07 14:26 13.20545 77.68948 3014 ft 24 kts 276°
2026-05-07 14:27 13.20555 77.68806 3011 ft 18 kts 274°
2026-05-07 14:27 13.20555 77.68780 3011 ft 1 kts 267°
2026-05-07 14:27 13.20553 77.68763 3011 ft 4 kts 262°
2026-05-07 14:27 13.20548 77.68720 3011 ft 6 kts 263°
2026-05-07 14:28 13.20548 77.68707 3011 ft 4 kts 269°
2026-05-07 14:28 13.20547 77.68669 3011 ft 7 kts 270°
2026-05-07 14:28 13.20568 77.68622 3014 ft 8 kts 333°
2026-05-07 14:28 13.20624 77.68617 3011 ft 9 kts
2026-05-07 14:29 13.20693 77.68629 3011 ft 11 kts 31°
2026-05-07 14:29 13.20718 77.68701 3011 ft 12 kts 93°
2026-05-07 14:29 13.20719 77.68758 3011 ft 0 kts 88°
2026-05-07 14:30 13.20718 77.68936 3011 ft 66 kts 91°
2026-05-07 14:30 13.20712 77.69666 3011 ft 138 kts 91°
2026-05-07 14:30 13.20718 77.70858 3157 ft 183 kts 90°
2026-05-07 14:30 13.20699 77.72189 3904 ft 195 kts 91°
2026-05-07 14:31 13.20677 77.73631 4588 ft 214 kts 90°
2026-05-07 14:31 13.20730 77.75233 5288 ft 231 kts 86°
2026-05-07 14:31 13.20878 77.76853 6261 ft 224 kts 83°
2026-05-07 14:31 13.21150 77.78392 7204 ft 214 kts 76°
2026-05-07 14:32 13.21608 77.79805 8116 ft 206 kts 66°
2026-05-07 14:32 13.22318 77.81107 8679 ft 215 kts 51°
2026-05-07 14:32 13.23565 77.82008 8952 ft 235 kts 11°
2026-05-07 14:32 13.25215 77.81830 9469 ft 242 kts 337°
2026-05-07 14:33 13.26630 77.80954 10289 ft 243 kts 328°
2026-05-07 14:33 13.28246 77.80198 10325 ft 272 kts 350°
2026-05-07 14:33 13.30212 77.80207 10557 ft 295 kts
2026-05-07 14:33 13.32300 77.80642 10773 ft 318 kts 12°
2026-05-07 14:34 13.34539 77.81123 10978 ft 339 kts 11°
2026-05-07 14:34 13.39533 77.81916 12258 ft 351 kts
2026-05-07 14:34 13.46698 77.82790 14130 ft 363 kts
2026-05-07 14:34 13.55192 77.83794 16017 ft 375 kts
2026-05-07 14:35 13.64780 77.84939 17948 ft 386 kts
2026-05-07 14:35 13.74530 77.86103 19534 ft 395 kts
2026-05-07 14:35 13.83077 77.87123 20831 ft 401 kts
2026-05-07 14:35 13.91872 77.88183 22092 ft 410 kts
2026-05-07 14:36 13.97569 77.88865 22915 ft 416 kts
2026-05-07 14:36 14.03361 77.89556 23679 ft 421 kts
2026-05-07 14:36 14.09231 77.90259 24331 ft 427 kts
2026-05-07 14:36 14.15803 77.91048 25031 ft 433 kts
2026-05-07 14:37 14.26872 77.92379 26135 ft 442 kts
2026-05-07 14:37 14.43307 77.94351 27655 ft 453 kts
2026-05-07 14:37 14.55927 77.96219 28708 ft 461 kts
2026-05-07 14:38 14.64579 77.97744 29394 ft 466 kts
2026-05-07 14:38 14.75020 77.99514 30135 ft 473 kts
2026-05-07 14:38 14.86820 78.01508 30747 ft 480 kts
2026-05-07 14:38 14.97901 78.03402 31228 ft 483 kts
2026-05-07 14:39 15.05217 78.04635 31884 ft 482 kts
2026-05-07 14:39 15.11840 78.05761 32479 ft 481 kts
2026-05-07 14:39 15.19515 78.07067 33135 ft 480 kts
2026-05-07 14:39 15.29779 78.08816 33955 ft 479 kts
2026-05-07 14:40 15.39147 78.10405 34623 ft 476 kts
2026-05-07 14:40 15.49430 78.12070 35297 ft 474 kts
2026-05-07 14:40 15.58732 78.13589 35902 ft 472 kts
2026-05-07 14:40 15.69221 78.15307 36558 ft 470 kts
2026-05-07 14:41 15.78727 78.16863 36853 ft 468 kts
2026-05-07 14:41 15.87744 78.18339 36858 ft 468 kts
2026-05-07 14:41 16.08709 78.21778 36863 ft 467 kts
2026-05-07 14:42 16.26677 78.27619 36873 ft 469 kts 32°
2026-05-07 14:42 16.41711 78.37710 36880 ft 469 kts 32°
2026-05-07 14:43 16.57794 78.48515 36881 ft 470 kts 31°
2026-05-07 14:43 16.68806 78.55923 36881 ft 471 kts 31°
2026-05-07 14:44 16.79758 78.63304 36884 ft 472 kts 31°
2026-05-07 14:44 16.90797 78.70753 36883 ft 472 kts 31°
2026-05-07 14:45 17.07837 78.82275 36882 ft 474 kts 31°
2026-05-07 14:45 17.22474 78.92186 36877 ft 474 kts 31°
2026-05-07 14:46 17.36549 79.01743 36867 ft 474 kts 31°
2026-05-07 14:46 17.48014 79.09541 36861 ft 474 kts 31°
2026-05-07 14:47 17.60139 79.17802 36861 ft 475 kts 31°
2026-05-07 14:47 17.80677 79.31818 36847 ft 476 kts 31°
2026-05-07 14:48 17.95971 79.42281 36858 ft 475 kts 31°
2026-05-07 14:48 18.08902 79.51143 36850 ft 476 kts 31°
2026-05-07 14:49 18.23902 79.61448 36788 ft 477 kts 31°
2026-05-07 14:49 18.40898 79.73146 36823 ft 476 kts 31°
2026-05-07 14:50 18.59377 79.85754 36776 ft 477 kts 30°
2026-05-07 14:50 18.76861 79.97586 36784 ft 477 kts 30°
2026-05-07 14:51 18.93932 80.09177 36772 ft 478 kts 30°
2026-05-07 14:51 19.08703 80.19234 36845 ft 476 kts 30°
2026-05-07 14:52 19.23166 80.29088 36819 ft 477 kts 30°
2026-05-07 14:52 19.36812 80.38413 36822 ft 477 kts 30°
2026-05-07 14:53 19.47941 80.46032 36837 ft 477 kts 30°
2026-05-07 14:53 19.59123 80.53700 36841 ft 478 kts 30°
2026-05-07 14:54 19.70791 80.61715 36845 ft 479 kts 30°
2026-05-07 14:54 19.81995 80.69423 36855 ft 480 kts 30°
2026-05-07 14:55 19.93191 80.77139 36858 ft 481 kts 30°
2026-05-07 14:55 20.04419 80.84892 36860 ft 482 kts 30°
2026-05-07 14:56 20.15606 80.92629 36860 ft 482 kts 30°
2026-05-07 14:56 20.26858 81.00430 36858 ft 483 kts 30°
2026-05-07 14:57 20.38124 81.08248 36861 ft 484 kts 30°
2026-05-07 14:57 20.49396 81.16084 36851 ft 485 kts 30°
2026-05-07 14:58 20.60701 81.23957 36861 ft 485 kts 30°
2026-05-07 14:58 20.72017 81.31852 36868 ft 485 kts 29°
2026-05-07 14:59 20.82908 81.40395 36844 ft 490 kts 39°
2026-05-07 14:59 20.93039 81.50185 36846 ft 490 kts 39°
2026-05-07 15:00 21.03147 81.59967 36830 ft 491 kts 39°
2026-05-07 15:00 21.13289 81.69806 36828 ft 491 kts 39°
2026-05-07 15:01 21.18636 81.74166 36826 ft 486 kts 27°
2026-05-07 15:01 21.24715 81.77417 36825 ft 480 kts 18°
2026-05-07 15:01 21.36944 81.82940 36837 ft 481 kts 18°
2026-05-07 15:02 21.49307 81.88538 36840 ft 482 kts 18°
2026-05-07 15:02 21.61692 81.94153 36834 ft 483 kts 18°
2026-05-07 15:03 21.74079 81.99779 36832 ft 483 kts 18°
2026-05-07 15:03 21.86484 82.05424 36821 ft 484 kts 17°
2026-05-07 15:04 21.98738 82.10439 36817 ft 475 kts
2026-05-07 15:04 22.05235 82.11423 36816 ft 466 kts 356°
2026-05-07 15:04 22.11693 82.11725 36827 ft 466 kts 356°
2026-05-07 15:05 22.24671 82.12386 36812 ft 466 kts 356°
2026-05-07 15:05 22.37558 82.13026 36824 ft 467 kts 355°
2026-05-07 15:06 22.50627 82.13675 36863 ft 466 kts 355°
2026-05-07 15:06 22.63525 82.14318 36845 ft 467 kts 355°
2026-05-07 15:07 22.76531 82.14967 36857 ft 467 kts 355°
2026-05-07 15:07 22.89538 82.15619 36854 ft 467 kts 355°
2026-05-07 15:08 23.03175 82.16500 35945 ft 472 kts
2026-05-07 15:08 23.09482 82.18974 34467 ft 497 kts 24°
2026-05-07 15:08 23.15499 82.23697 32817 ft 509 kts 32°
2026-05-07 15:09 23.21117 82.28323 31441 ft 507 kts 32°
2026-05-07 15:09 23.26651 82.32874 30129 ft 505 kts 33°
2026-05-07 15:09 23.32202 82.37451 28998 ft 494 kts 33°
2026-05-07 15:09 23.37608 82.41915 27913 ft 483 kts 33°
2026-05-07 15:10 23.42905 82.46291 26862 ft 472 kts 34°
2026-05-07 15:10 23.48075 82.50567 25865 ft 460 kts 34°
2026-05-07 15:10 23.53901 82.55389 24739 ft 448 kts 34°
2026-05-07 15:10 23.62319 82.62364 22942 ft 431 kts 34°
2026-05-07 15:11 23.69881 82.68649 21151 ft 417 kts 35°
2026-05-07 15:11 23.75930 82.73689 19682 ft 408 kts 34°
2026-05-07 15:11 23.80406 82.77424 18663 ft 401 kts 33°
2026-05-07 15:11 23.84799 82.81089 17608 ft 394 kts 33°
2026-05-07 15:12 23.89760 82.85226 16922 ft 392 kts 33°
2026-05-07 15:12 23.95948 82.90394 16208 ft 387 kts 33°
2026-05-07 15:12 24.01472 82.95017 15560 ft 384 kts 33°
2026-05-07 15:12 24.05943 82.98761 15068 ft 380 kts 33°
2026-05-07 15:13 24.10727 83.02710 14525 ft 375 kts 27°
2026-05-07 15:13 24.16645 83.03795 13969 ft 351 kts 348°
2026-05-07 15:13 24.21991 83.03046 13441 ft 348 kts 348°
2026-05-07 15:13 24.27038 83.02363 12903 ft 344 kts 348°
2026-05-07 15:14 24.34318 83.01374 12135 ft 340 kts 348°
2026-05-07 15:14 24.41075 83.00455 11429 ft 335 kts 348°
2026-05-07 15:14 24.46969 82.99650 10814 ft 332 kts 349°
2026-05-07 15:14 24.53140 82.98813 10301 ft 318 kts 349°
2026-05-07 15:15 24.59216 82.97994 9886 ft 285 kts 348°
2026-05-07 15:15 24.63269 82.97437 9496 ft 276 kts 348°
2026-05-07 15:15 24.68260 82.96743 9170 ft 278 kts 348°
2026-05-07 15:15 24.74977 82.95819 8730 ft 277 kts 348°
2026-05-07 15:16 24.79651 82.95181 8454 ft 273 kts 348°
2026-05-07 15:16 24.85195 82.94429 8152 ft 238 kts 348°
2026-05-07 15:16 24.88814 82.93929 7826 ft 229 kts 347°
2026-05-07 15:16 24.93450 82.93292 7481 ft 202 kts 347°
2026-05-07 15:17 24.97755 82.92691 7245 ft 198 kts 347°
2026-05-07 15:17 25.03084 82.91953 6812 ft 201 kts 348°
2026-05-07 15:17 25.06544 82.91480 6525 ft 202 kts 348°
2026-05-07 15:17 25.09703 82.91044 6258 ft 201 kts 348°
2026-05-07 15:18 25.13261 82.90551 5950 ft 200 kts 348°
2026-05-07 15:18 25.16599 82.90088 5656 ft 198 kts 349°
2026-05-07 15:18 25.21101 82.89471 5266 ft 197 kts 352°
2026-05-07 15:18 25.23961 82.91329 4962 ft 209 kts 64°
2026-05-07 15:19 25.25134 82.95347 4660 ft 205 kts 64°
2026-05-07 15:19 25.26434 82.98124 4409 ft 203 kts 56°
2026-05-07 15:19 25.28591 83.01431 4086 ft 201 kts 47°
2026-05-07 15:19 25.31080 83.04157 3778 ft 198 kts 38°
2026-05-07 15:20 25.34538 83.06798 3412 ft 197 kts 28°
2026-05-07 15:20 25.38471 83.08678 3037 ft 197 kts 18°
2026-05-07 15:20 25.41825 83.09474 2573 ft 193 kts
2026-05-07 15:20 25.43822 83.07911 2418 ft 172 kts 294°
2026-05-07 15:21 25.44279 83.05332 2421 ft 173 kts 274°
2026-05-07 15:21 25.44418 83.02548 2422 ft 172 kts 274°
2026-05-07 15:21 25.44547 82.99899 2414 ft 170 kts 274°
2026-05-07 15:21 25.44684 82.97098 1910 ft 173 kts 274°
2026-05-07 15:22 25.44775 82.95205 1606 ft 174 kts 275°
2026-05-07 15:22 25.44840 82.93879 1390 ft 173 kts 275°
2026-05-07 15:22 25.44902 82.92587 1166 ft 167 kts 274°
2026-05-07 15:22 25.44965 82.91299 966 ft 168 kts 274°
2026-05-07 15:23 25.45018 82.90025 747 ft 163 kts 272°
2026-05-07 15:23 25.45074 82.88780 576 ft 161 kts 274°
2026-05-07 15:23 25.45147 82.87543 315 ft 158 kts 273°
2026-05-07 15:23 25.45200 82.86401 276 ft 119 kts 273°
2026-05-07 15:24 25.45229 82.85878 277 ft 50 kts 272°
2026-05-07 15:24 25.45240 82.85609 277 ft 16 kts 275°
2026-05-07 15:24 25.45187 82.85544 279 ft 11 kts 177°
2026-05-07 15:24 25.45107 82.85543 277 ft 10 kts 181°
2026-05-07 15:25 25.45046 82.85544 279 ft 0 kts 155°
2026-05-07 15:25 25.45039 82.85551 277 ft 4 kts 142°
2026-05-07 15:25 25.45037 82.85596 281 ft 10 kts 82°
2026-05-07 15:25 25.45030 82.85702 277 ft 18 kts 91°
2026-05-07 15:26 25.45009 82.85803 277 ft 12 kts 108°
2026-05-07 15:26 25.44996 82.85831 277 ft 4 kts 162°
2026-05-07 15:26 25.44961 82.85835 277 ft 4 kts 179°
2026-05-07 15:26 25.44954 82.85835 277 ft 0 kts 179°